Hurghada, Egypt

2:52 PM EET on May 23, 2017 (GMT +0200)
Hurghada

Weather History for HEGN - April, 2014

Change the Weather History Date:

Friday, April 11, 2014

  Actual Average Record
Temperature  
Mean Temperature 74 °F -  
Max Temperature 87 °F 84 °F 97 °F (2016)
Min Temperature 62 °F 67 °F 57 °F (2012)
Cooling Degree Days 10    
Growing Degree Days 24 (Base 50)    
Moisture  
Dew Point 46 °F    
Average Humidity 34    
Maximum Humidity 61    
Minimum Humidity 18    
Precipitation  
Precipitation 0.00 in - - ()
Sea Level Pressure  
Sea Level Pressure 29.94 in    
Wind  
Wind Speed 9 mph ()    
Max Wind Speed 18 mph    
Max Gust Speed -    
Visibility 6.0 miles    
Events      
Averages and records for this station are not official NWS values.
T = Trace of Precipitation, MM = Missing Value Source: Averaged Metar Reports

Daily Weather History Graph

Daily Weather History Graph

Search for Another Location

Airport or City:

Trip Planner

Search our weather history database for the weather conditions in past years. The results will help you decide how hot, cold, wet, or windy it might be!

Date:

Astronomy

Apr. 11, 2014 Rise Set
Actual Time 5:25 AM EET 6:07 PM EET
Civil Twilight 5:01 AM EET 6:31 PM EET
Nautical Twilight 4:33 AM EET 6:58 PM EET
Astronomical Twilight 4:05 AM EET 7:27 PM EET
Moon 2:46 PM EET (4/11) 2:48 AM EET (4/11)
Length of Visible Light 13h 29m
Length of Day
12h 42m
Waxing Gibbous, 85% of the Moon is Illuminated
Apr 11
Waxing Gibbous
Apr 15
Full
Apr 22
Last Quarter
Apr 29
New
May 7
First Quarter

Hourly Weather History & Observations

Time (EET) Temp. Heat Index Dew Point Humidity Pressure Visibility Wind Dir Wind Speed Gust Speed Precip Events Conditions
12:00 AM 69.8 °F - 37.4 °F 31% 29.95 in - WNW 11.5 mph - N/A   Clear
1:00 AM 68.0 °F - 39.2 °F 35% 29.95 in - NW 9.2 mph - N/A   Clear
2:00 AM 67 °F - 40 °F 26% 29.95 in 6 mi WNW 11.5 mph - -   Clear
2:00 AM 68.0 °F - 39.2 °F 35% 29.95 in - WNW 11.5 mph - N/A   Clear
3:00 AM 66.2 °F - 39.2 °F 37% 29.92 in - NW 9.2 mph - N/A   Clear
4:00 AM 64.4 °F - 41.0 °F 42% 29.95 in - NW 6.9 mph - N/A   Clear
5:00 AM 63 °F - 40 °F 32% 29.96 in 6 mi NW 5.8 mph - -   Clear
5:00 AM 62.6 °F - 41.0 °F 45% 29.95 in - NW 5.8 mph - N/A   Clear
6:00 AM 66.2 °F - 41.0 °F 40% 29.95 in - NNW 11.5 mph - N/A   Clear
7:00 AM 68.0 °F - 42.8 °F 40% 29.98 in - NW 12.7 mph - N/A   Clear
8:00 AM 73 °F - 43 °F 23% 30.00 in 6 mi NW 10.4 mph - -  
8:00 AM 73.4 °F - 42.8 °F 33% 29.98 in - NW 10.4 mph - N/A   Clear
9:00 AM 75.2 °F - 44.6 °F 34% 29.98 in - NNW 9.2 mph - N/A   Clear
10:00 AM 78.8 °F - 48.2 °F 34% 29.98 in - North 16.1 mph - N/A   Clear
11:00 AM 80 °F - 46 °F 20% 29.99 in 6 mi North 18.4 mph - -  
11:00 AM 80.6 °F - 46.4 °F 30% 29.98 in - North 18.4 mph - N/A   Clear
12:00 PM 82.4 °F - 48.2 °F 30% 29.95 in - North 13.8 mph - N/A   Clear
1:00 PM 86.0 °F - 50.0 °F 29% 29.92 in - NNE 12.7 mph - N/A   Clear
2:00 PM 87 °F - 50 °F 18% 29.93 in 6 mi NNE 12.7 mph - -  
2:00 PM 86.0 °F - 50.0 °F 29% 29.92 in - NNE 12.7 mph - N/A   Clear
3:00 PM 87.8 °F 85.7 °F 53.6 °F 31% 29.89 in - NNE 13.8 mph - N/A   Clear
4:00 PM 86.0 °F - 51.8 °F 31% 29.89 in - North 11.5 mph - N/A   Clear
5:00 PM 84 °F - 52 °F 23% 29.90 in 6 mi NNE 6.9 mph - -  
5:00 PM 84.2 °F - 51.8 °F 33% 29.89 in - NNE 6.9 mph - N/A   Clear
6:00 PM 80.6 °F - 51.8 °F 37% 29.92 in - North 6.9 mph - N/A   Clear
7:00 PM 75.2 °F - 59.0 °F 57% 29.92 in - North 10.4 mph - N/A   Clear
8:00 PM 74 °F - 59 °F 50% 29.94 in 6 mi NNW 5.8 mph - -  
8:00 PM 73.4 °F - 59.0 °F 61% 29.92 in - NNW 5.8 mph - N/A   Clear
9:00 PM 73.4 °F - 44.6 °F 36% 29.95 in - North 11.5 mph - N/A   Clear
10:00 PM 73.4 °F - 41.0 °F 31% 29.92 in - NNW 9.2 mph - N/A   Clear
11:00 PM 72 °F - 40 °F 20% 29.94 in 6 mi NW 6.9 mph - -  
11:00 PM 71.6 °F - 39.2 °F 31% 29.92 in - NW 6.9 mph - N/A   Clear